Date String (YYYY-MM-DD hh:mm:ss) UTC,Instrument flags,Ambient pressure (hPa),Sample flow (lpm),Bypass flow (lpm),Sample temperature (°C),Ambient temperature (°C),ASC tube jacket temperature (°C),LED temperature (°C),Box temperature (°C),Sample RH (%),Span deviation,Mass concentration (μg/m³),Mass concentration (μg/m³),Mass concentration (μg/m³)
DateTimeUTC,F1_M11,P_M11,Q1_M11,Q2_M11,T1_M11,T2_M11,T3_M11,T4_M11,T5_M11,U1_M11,ZSPAN_M11,X0_M11,X2_M11,X1_M11
2021-11-19 17:00:00,,0825.2,4.99,0.00,23.5,23.0,00.0,32.2,25.4,09.3,0000.0,0013.40,0004.89,0003.83
2021-11-19 17:01:00,,0825.3,5.00,0.00,23.5,23.0,00.0,32.3,25.4,09.3,0000.0,0014.31,0004.87,0003.80
2021-11-19 17:02:00,,0825.3,5.01,0.00,23.5,23.1,00.0,32.3,25.5,09.3,0000.0,0013.92,0004.84,0003.77
2021-11-19 17:03:00,,0825.1,5.00,0.00,23.6,23.1,00.0,32.3,25.5,09.3,0000.0,0013.83,0004.79,0003.76
2021-11-19 17:04:00,,0825.1,5.00,0.00,23.6,23.1,00.0,32.4,25.5,09.3,0000.0,0013.81,0004.78,0003.76
2021-11-19 17:05:00,,0825.1,5.00,0.00,23.6,23.2,00.0,32.4,25.5,09.3,0000.0,0013.60,0004.78,0003.73
2021-11-19 17:06:00,,0825.3,5.01,0.00,23.7,23.2,00.0,32.4,25.5,09.3,0000.0,0013.40,0004.70,0003.69
2021-11-19 17:07:00,,0825.3,5.00,0.00,23.7,23.2,00.0,32.4,25.6,09.2,0000.0,0013.26,0004.61,0003.64
2021-11-19 17:08:00,,0825.3,5.00,0.00,23.7,23.2,00.0,32.5,25.6,09.2,0000.0,0012.61,0004.54,0003.62
2021-11-19 17:09:00,,0825.1,5.00,0.00,23.8,23.3,00.0,32.5,25.6,09.2,0000.0,0011.88,0004.53,0003.61
2021-11-19 17:10:00,,0825.3,5.00,0.00,23.8,23.3,00.0,32.5,25.7,09.2,0000.0,0010.99,0004.47,0003.60
2021-11-19 17:11:00,,0825.1,5.00,0.00,23.8,23.3,00.0,32.6,25.7,09.3,0000.0,0010.95,0004.44,0003.58
2021-11-19 17:12:00,,0825.0,5.00,0.00,23.8,23.4,00.0,32.6,25.7,09.2,0000.0,0009.90,0004.43,0003.56
2021-11-19 17:13:00,,0824.9,4.98,0.00,23.9,23.4,00.0,32.6,25.8,09.2,0000.0,0009.48,0004.38,0003.55
2021-11-19 17:14:00,,0825.1,5.02,0.00,23.9,23.4,00.0,32.7,25.8,09.2,0000.0,0009.93,0004.36,0003.52
2021-11-19 17:15:00,,0825.1,4.99,0.00,23.9,23.4,00.0,32.7,25.9,09.1,0000.0,0009.65,0004.35,0003.50
2021-11-19 17:16:00,,0825.1,5.01,0.00,23.9,23.4,00.0,32.7,25.9,09.1,0000.0,0009.88,0004.32,0003.49
2021-11-19 17:17:00,,0825.1,4.99,0.00,24.0,23.4,00.0,32.7,25.9,09.2,0000.0,0010.17,0004.33,0003.50
2021-11-19 17:18:00,,0825.2,5.00,0.00,24.0,23.4,00.0,32.8,25.9,09.2,0000.0,0010.63,0004.40,0003.53
2021-11-19 17:19:00,,0825.3,5.01,0.00,24.0,23.5,00.0,32.8,25.9,09.1,0000.0,0011.56,0004.46,0003.57
2021-11-19 17:20:00,,0825.3,5.00,0.00,24.0,23.5,00.0,32.8,25.9,09.2,0000.0,0011.74,0004.47,0003.61
2021-11-19 17:21:00,,0825.3,4.99,0.00,24.0,23.5,00.0,32.8,26.0,09.1,0000.0,0012.03,0004.54,0003.65
2021-11-19 17:22:00,,0825.3,5.00,0.00,24.1,23.5,00.0,32.8,26.0,09.1,0000.0,0013.36,0004.65,0003.70
2021-11-19 17:23:00,,0825.3,5.00,0.00,24.1,23.5,00.0,32.9,26.0,09.1,0000.0,0013.84,0004.69,0003.75
2021-11-19 17:24:00,,0825.3,5.00,0.00,24.1,23.5,00.0,32.9,26.0,09.1,0000.0,0013.98,0004.77,0003.80
2021-11-19 17:25:00,,0825.4,5.01,0.00,24.1,23.5,00.0,32.9,26.1,09.1,0000.0,0014.41,0004.85,0003.84
2021-11-19 17:26:00,,0825.4,4.99,0.00,24.2,23.5,00.0,33.0,26.1,09.1,0000.0,0015.29,0004.87,0003.87
2021-11-19 17:27:00,,0825.4,5.01,0.00,24.2,23.6,00.0,33.0,26.1,09.1,0000.0,0016.38,0004.88,0003.90
2021-11-19 17:28:00,,0825.4,5.00,0.00,24.2,23.6,00.0,33.0,26.1,09.1,0000.0,0016.84,0004.95,0003.93
2021-11-19 17:29:00,,0825.4,5.01,0.00,24.2,23.6,00.0,33.0,26.1,09.2,0000.0,0017.13,0004.99,0003.94
2021-11-19 17:30:00,,0825.4,5.00,0.00,24.2,23.6,00.0,33.0,26.1,09.3,0000.0,0017.17,0004.95,0003.94
2021-11-19 17:31:00,,0825.3,4.99,0.00,24.2,23.6,00.0,33.1,26.2,09.2,0000.0,0017.28,0004.94,0003.93
2021-11-19 17:32:00,,0825.3,5.00,0.00,24.3,23.7,00.0,33.1,26.2,09.2,0000.0,0017.97,0004.90,0003.93
2021-11-19 17:33:00,,0825.3,5.00,0.00,24.3,23.6,00.0,33.1,26.2,09.1,0000.0,0017.56,0004.92,0003.92
2021-11-19 17:34:00,,0825.3,5.01,0.00,24.3,23.7,00.0,33.1,26.2,09.3,0000.0,0017.56,0004.95,0003.92
2021-11-19 17:35:00,,0825.3,4.99,0.00,24.3,23.7,00.0,33.1,26.2,09.2,0000.0,0017.60,0004.96,0003.91
2021-11-19 17:36:00,,0825.4,5.00,0.00,24.3,23.7,00.0,33.1,26.3,09.2,0000.0,0017.33,0004.95,0003.92
2021-11-19 17:37:00,,0825.4,5.00,0.00,24.3,23.7,00.0,33.2,26.3,09.2,0000.0,0016.84,0004.97,0003.91
2021-11-19 17:38:00,,0825.3,5.00,0.00,24.4,23.8,00.0,33.2,26.3,09.2,0000.0,0015.86,0004.96,0003.91
2021-11-19 17:39:00,,0825.3,4.99,0.00,24.4,23.8,00.0,33.2,26.3,09.1,0000.0,0015.30,0005.00,0003.90
2021-11-19 17:40:00,,0825.4,5.01,0.00,24.4,23.8,00.0,33.2,26.3,09.2,0000.0,0014.76,0004.99,0003.90
2021-11-19 17:41:00,,0825.3,4.99,0.00,24.4,23.9,00.0,33.2,26.4,09.1,0000.0,0014.09,0005.03,0003.90
2021-11-19 17:42:00,,0825.3,5.00,0.00,24.5,23.9,00.0,33.3,26.4,09.1,0000.0,0015.13,0005.10,0003.91
2021-11-19 17:43:00,,0825.2,5.01,0.00,24.5,24.0,00.0,33.3,26.4,09.1,0000.0,0015.55,0005.15,0003.90
2021-11-19 17:44:00,,0825.2,4.98,0.00,24.5,24.0,00.0,33.3,26.4,09.1,0000.0,0015.49,0005.14,0003.89
2021-11-19 17:45:00,,0825.2,5.01,0.00,24.6,24.0,00.0,33.3,26.5,09.1,0000.0,0014.84,0005.06,0003.88
2021-11-19 17:46:00,,0825.2,5.00,0.00,24.6,24.0,00.0,33.4,26.5,09.1,0000.0,0014.98,0005.04,0003.87
2021-11-19 17:47:00,,0825.2,4.99,0.00,24.6,24.1,00.0,33.4,26.6,09.1,0000.0,0014.98,0005.04,0003.85
2021-11-19 17:48:00,,0825.2,5.01,0.00,24.6,24.1,00.0,33.4,26.6,09.1,0000.0,0014.35,0004.99,0003.83
2021-11-19 17:49:00,,0825.1,5.01,0.00,24.7,24.1,00.0,33.4,26.6,09.0,0000.0,0015.37,0005.00,0003.79
2021-11-19 17:50:00,,0825.0,4.99,0.00,24.7,24.1,00.0,33.5,26.6,09.0,0000.0,0015.87,0004.92,0003.77
2021-11-19 17:51:00,,0825.0,5.00,0.00,24.7,24.1,00.0,33.5,26.7,09.0,0000.0,0016.55,0004.94,0003.74
2021-11-19 17:52:00,,0825.0,4.99,0.00,24.7,24.1,00.0,33.5,26.7,09.0,0000.0,0018.00,0004.86,0003.70
2021-11-19 17:53:00,,0825.0,4.99,0.00,24.8,24.2,00.0,33.5,26.7,09.0,0000.0,0017.94,0004.81,0003.66
2021-11-19 17:54:00,,0824.9,5.01,0.00,24.8,24.2,00.0,33.6,26.7,09.0,0000.0,0016.62,0004.73,0003.62
2021-11-19 17:55:00,,0824.9,4.99,0.00,24.8,24.2,00.0,33.6,26.7,09.0,0000.0,0016.30,0004.66,0003.59
2021-11-19 17:56:00,,0824.9,5.00,0.00,24.8,24.2,00.0,33.6,26.7,09.1,0000.0,0017.12,0004.69,0003.57
2021-11-19 17:57:00,,0824.9,5.01,0.00,24.8,24.2,00.0,33.6,26.7,09.2,0000.0,0017.31,0004.67,0003.55
2021-11-19 17:58:00,,0824.9,5.00,0.00,24.8,24.2,00.0,33.6,26.8,09.2,0000.0,0017.14,0004.62,0003.54
2021-11-19 17:59:00,,0824.9,4.99,0.00,24.9,24.2,00.0,33.7,26.8,09.1,0000.0,0016.99,0004.56,0003.54
